[[{"header":{"parameterUnit":"m.s-1","parameterCategory":1,"la1":30.2991,"la2":30.254,"lo1":-89.0895,"lo2":-89.0444,"dy":0.0017,"dx":0.0017,"nx":28,"ny":28,"refTime":"2025-12-24T03:00:00:Z","depth":0,"parameterNumber":2,"parameterNumberName":"U-component_of_WINDS"},"data":[0,0,0,0,0,0,0,0,0,0,0,0,0,0,0,0,0,0,0,0,0,0,0,0,0,0,0,0,0,0,0,0,0,0,0,0,0,0,0,0,0,0,0,0,0,0,0,0,0,0,0,0,0,0,0,0,0,0,-0.6351,-0.6351,0,-0.6281,-0.628,-0.628,-0.6212,-0.6211,-0.621,-0.6209,-0.6136,-0.6135,-0.6134,0,0,0,0,0,0,0,0,0,0,0,0,0,-0.6425,-0.6424,-0.6351,-0.635,-0.635,-0.6281,-0.628,-0.6279,-0.6212,-0.6211,-0.621,-0.6209,-0.6137,-0.6135,-0.6134,0,0,0,0,0,0,0,0,0,0,0,0,0,-0.6378,-0.6424,-0.6352,-0.6308,-0.6303,-0.6282,-0.628,-0.6279,-0.6212,-0.6211,-0.621,-0.6208,-0.6137,-0.6136,-0.6134,-0.615,0,0,-0.6129,-0.6128,0,0,0,0,0,0,0,0,-0.6381,-0.6375,-0.6315,-0.6311,-0.6305,-0.6254,-0.628,-0.6236,-0.6212,-0.6247,-0.6209,-0.6208,-0.6176,-0.6171,-0.6161,-0.6146,-0.6143,-0.6129,-0.6127,-0.6127,-0.6126,0,0,0,0,0,0,0,-0.6384,-0.6378,-0.6324,-0.6314,-0.6308,-0.6291,-0.6283,-0.6271,-0.622,-0.6244,-0.6238,-0.6231,-0.6174,-0.6163,-0.6159,-0.6142,-0.6129,-0.6127,-0.6126,-0.6125,-0.6135,-0.6137,0,0,0,0,0,0,-0.6394,-0.6381,-0.6326,-0.6321,-0.6341,-0.6291,-0.6282,-0.6272,-0.622,-0.621,-0.6232,-0.6228,-0.6166,-0.6161,-0.6156,-0.617,-0.6127,-0.6125,-0.6124,-0.6134,-0.6136,-0.6137,0,0,0,0,0,0,-0.6396,-0.639,-0.6329,-0.635,-0.6341,-0.6291,-0.628,-0.6271,-0.626,-0.6211,-0.6202,-0.6231,-0.6165,-0.6158,-0.6152,-0.6167,-0.6124,-0.6123,-0.6133,-0.6135,-0.6136,-0.62,0,0,0,0,0,0,-0.6398,-0.6391,-0.6397,-0.635,-0.634,-0.6326,-0.6281,-0.6271,-0.6258,-0.6252,-0.6207,-0.6199,-0.6164,-0.6154,-0.615,-0.6164,-0.6122,-0.6131,-0.6133,-0.6136,-0.6196,-0.6203,-0.621,0,0,0,0,0,-0.6401,-0.6417,-0.6397,-0.6391,-0.6346,-0.6327,-0.6321,-0.628,-0.6259,-0.6264,-0.6233,-0.62,-0.6166,-0.6154,-0.6149,-0.6162,-0.613,-0.6133,-0.6136,-0.6193,-0.6202,-0.621,0,0,0,0,0,0,-0.6467,-0.6411,-0.6388,-0.639,-0.6364,-0.6316,-0.6321,-0.6292,-0.6271,-0.6266,-0.6216,-0.6207,-0.6206,-0.6183,-0.6171,-0.6174,-0.6143,-0.6145,-0.6189,-0.6197,-0.6204,-0.6209,-0.612,0,0,0,0,0,-0.6481,-0.6471,-0.6422,-0.6428,-0.6417,-0.6371,-0.6361,-0.6332,-0.6303,-0.6292,-0.626,-0.6232,-0.6215,-0.6205,-0.6187,-0.6193,-0.6181,-0.6199,-0.6206,-0.6212,-0.6214,-0.6214,-0.6221,-0.6146,-0.6146,-0.6146,0,0,-0.6511,-0.6479,-0.6476,-0.6441,-0.6417,-0.6407,-0.6362,-0.6353,-0.6345,-0.629,-0.6282,-0.6257,-0.6223,-0.6223,-0.6221,-0.6204,-0.6232,-0.6216,-0.6221,-0.6219,-0.6218,-0.6225,-0.6232,-0.6148,-0.6148,-0.6148,0,0,-0.6561,-0.6536,-0.6538,-0.6515,-0.648,-0.645,-0.6451,-0.6407,-0.6388,-0.6379,-0.6338,-0.6327,-0.6299,-0.6276,-0.6261,-0.6301,-0.627,-0.6297,-0.6333,-0.6334,-0.634,-0.6345,-0.6358,-0.6364,-0.6299,-0.6299,-0.6299,0,-0.6602,-0.6585,-0.6543,-0.6536,-0.6521,-0.6472,-0.6473,-0.6453,-0.6414,-0.6405,-0.6387,-0.635,-0.6324,-0.6316,-0.6326,-0.6316,-0.6314,-0.6301,-0.6343,-0.6347,-0.6351,-0.6363,-0.6369,-0.6302,-0.6302,-0.6302,-0.6301,0,-0.6638,-0.6627,-0.6633,-0.6596,-0.6582,-0.658,-0.6536,-0.6527,-0.6499,-0.6471,-0.6461,-0.6428,-0.6402,-0.6398,-0.6371,-0.6387,-0.6378,-0.6352,-0.632,-0.6362,-0.6373,-0.6378,-0.6307,-0.6306,-0.6305,-0.6304,0,0,-0.6726,-0.6666,-0.6669,-0.6651,-0.6609,-0.6599,-0.6594,-0.6569,-0.6561,-0.6536,-0.653,-0.6507,-0.6483,-0.6466,-0.6436,-0.6437,-0.647,-0.641,-0.6409,-0.6422,-0.6484,-0.6503,-0.651,-0.6449,-0.645,-0.6451,-0.6487,0,-0.6768,-0.6756,-0.6717,-0.6717,-0.6705,-0.6658,-0.6653,-0.6627,-0.66,-0.6586,-0.6556,-0.654,-0.651,-0.6499,-0.6498,-0.6466,-0.6481,-0.6463,-0.6442,-0.6442,-0.6451,-0.6515,-0.6536,-0.6571,-0.6491,-0.6491,-0.6492,0,-0.6814,-0.6792,-0.6791,-0.6748,-0.6742,-0.6739,-0.6712,-0.6699,-0.6668,-0.6648,-0.6629,-0.6595,-0.6587,-0.6557,-0.6544,-0.6532,-0.6522,-0.6505,-0.6505,-0.6501,-0.6469,-0.6512,-0.6582,-0.6587,-0.6498,-0.6498,-0.6497,0,-0.6878,-0.6848,-0.6843,-0.6829,-0.678,-0.6778,-0.6758,-0.6725,-0.6712,-0.6688,-0.6679,-0.6655,-0.6642,-0.6623,-0.6584,-0.6566,-0.6575,-0.6542,-0.6557,-0.6558,-0.6561,-0.6561,-0.6629,-0.6555,-0.6555,-0.6555,-0.6555,0,-0.6928,-0.6929,-0.687,-0.6867,-0.6867,-0.6822,-0.6822,-0.6797,-0.6768,-0.6759,-0.6716,-0.6708,-0.6657,-0.6643,-0.6612,-0.6605,-0.66,-0.6583,-0.6574,-0.6586,-0.6588,-0.6578,-0.6574,-0.6556,-0.6556,-0.6556,-0.6556,0,-0.6998,-0.696,-0.6951,-0.6905,-0.6893,-0.6895,-0.6855,-0.6849,-0.682,-0.6809,-0.6803,-0.6757,-0.6738,-0.6697,-0.6668,-0.6647,-0.6647,-0.6633,-0.6658,-0.6652,-0.6669,-0.6668,-0.6732,-0.6738,-0.6662,-0.6663,-0.6664,0,-0.7032,-0.7032,-0.6986,-0.6977,-0.6958,-0.6943,-0.693,-0.6886,-0.6873,-0.6837,-0.6836,-0.6814,-0.6794,-0.6766,-0.6729,-0.6706,-0.669,-0.6714,-0.6686,-0.6698,-0.6689,-0.6689,-0.6688,-0.672,-0.6721,-0.6722,-0.6723,0,-0.7097,-0.7077,-0.706,-0.7035,-0.7021,-0.6999,-0.6975,-0.697,-0.692,-0.6908,-0.6888,-0.6873,-0.6842,-0.6821,-0.6792,-0.6769,-0.6738,-0.6732,-0.6734,-0.6745,-0.676,-0.6751,-0.6674,-0.673,-0.673,-0.6729,-0.6729,-0.6728,-0.7149,-0.7146,-0.7113,-0.7095,-0.7072,-0.7051,-0.7044,-0.7013,-0.6996,-0.6968,-0.6943,-0.6926,-0.6893,-0.6851,-0.6831,-0.6816,-0.68,-0.6804,-0.6804,-0.6805,-0.681,-0.6763,-0.6811,-0.6811,-0.681,-0.681,-0.681,0,-0.721,-0.7187,-0.717,-0.7138,-0.7124,-0.7096,-0.7068,-0.7057,-0.7042,-0.7015,-0.6996,-0.6973,-0.6952,-0.6914,-0.6889,-0.6884,-0.6869,-0.6879,-0.6879,-0.6874,-0.6826,-0.6826,-0.6892,-0.6892,-0.6892,-0.6892,-0.6892,-0.6892,-0.724,-0.7234,-0.7211,-0.7192,-0.7168,-0.7151,-0.7137,-0.7117,-0.7095,-0.7071,-0.7054,-0.7029,-0.6997,-0.6969,-0.6948,-0.6937,-0.693,-0.6945,-0.6929,-0.6885,-0.6877,-0.687,-0.687,-0.6944,-0.6944,-0.6978,-0.6978,-0.6978]},{"header":{"parameterUnit":"m.s-1","parameterCategory":1,"la1":30.2991,"la2":30.254,"lo1":-89.0895,"lo2":-89.0444,"dy":0.0017,"dx":0.0017,"nx":28,"ny":28,"refTime":"2025-12-24T03:00:00:Z","depth":0,"parameterNumber":3,"parameterNumberName":"V-component_of_WINDS"},"data":[0,0,0,0,0,0,0,0,0,0,0,0,0,0,0,0,0,0,0,0,0,0,0,0,0,0,0,0,0,0,0,0,0,0,0,0,0,0,0,0,0,0,0,0,0,0,0,0,0,0,0,0,0,0,0,0,0,0,0.1692,0.1693,0,0.1744,0.1744,0.1745,0.1795,0.1796,0.1796,0.1797,0.1848,0.1848,0.1849,0,0,0,0,0,0,0,0,0,0,0,0,0,0.1638,0.1638,0.1692,0.1693,0.1694,0.1744,0.1744,0.1745,0.1795,0.1796,0.1796,0.1797,0.1847,0.1848,0.1849,0,0,0,0,0,0,0,0,0,0,0,0,0,0.1672,0.1639,0.1692,0.1725,0.1728,0.1743,0.1744,0.1745,0.1795,0.1796,0.1797,0.1798,0.1847,0.1848,0.1849,0.1836,0,0,0.1853,0.1853,0,0,0,0,0,0,0,0,0.167,0.1674,0.1719,0.1722,0.1726,0.1764,0.1744,0.1776,0.1794,0.1769,0.1797,0.1798,0.1819,0.1822,0.183,0.1839,0.1841,0.1853,0.1853,0.1854,0.1854,0,0,0,0,0,0,0,0.1668,0.1672,0.1713,0.172,0.1724,0.1737,0.1743,0.175,0.1788,0.1772,0.1775,0.1781,0.1821,0.1829,0.1831,0.1842,0.1853,0.1854,0.1854,0.1855,0.1845,0.1844,0,0,0,0,0,0,0.1661,0.167,0.1711,0.1714,0.17,0.1737,0.1743,0.1751,0.1788,0.1795,0.178,0.1783,0.1826,0.183,0.1833,0.1822,0.1854,0.1855,0.1856,0.1846,0.1845,0.1844,0,0,0,0,0,0,0.1659,0.1664,0.1709,0.1693,0.17,0.1737,0.1745,0.1751,0.1759,0.1794,0.1801,0.1781,0.1827,0.1832,0.1836,0.1825,0.1855,0.1856,0.1847,0.1846,0.1844,0.1799,0,0,0,0,0,0,0.1657,0.1663,0.1658,0.1693,0.1701,0.1711,0.1744,0.1752,0.1761,0.1765,0.1797,0.1803,0.1828,0.1834,0.1837,0.1827,0.1857,0.1848,0.1846,0.1845,0.1801,0.1796,0.1791,0,0,0,0,0,0.1655,0.1643,0.1658,0.1663,0.1696,0.171,0.1714,0.1744,0.176,0.1756,0.1779,0.1802,0.1825,0.1834,0.1838,0.1828,0.1849,0.1847,0.1845,0.1804,0.1797,0.1791,0,0,0,0,0,0,0.1605,0.1648,0.1665,0.1663,0.1683,0.1718,0.1714,0.1736,0.1751,0.1754,0.179,0.1797,0.1797,0.1813,0.1822,0.1818,0.1841,0.1839,0.1808,0.1802,0.1797,0.1793,0.1858,0,0,0,0,0,0.1594,0.1602,0.1639,0.1634,0.1643,0.1676,0.1684,0.1705,0.1727,0.1735,0.1758,0.1778,0.179,0.1797,0.1809,0.1804,0.1812,0.1799,0.1794,0.179,0.1788,0.1788,0.1783,0.1837,0.1837,0.1837,0,0,0.157,0.1595,0.1598,0.1624,0.1642,0.165,0.1683,0.1689,0.1696,0.1736,0.1742,0.1759,0.1784,0.1783,0.1784,0.1797,0.1775,0.1787,0.1783,0.1784,0.1786,0.178,0.1776,0.1836,0.1836,0.1836,0,0,0.1532,0.1551,0.155,0.1567,0.1594,0.1617,0.1616,0.1649,0.1663,0.167,0.17,0.1708,0.1728,0.1744,0.1755,0.1726,0.1748,0.1729,0.1702,0.1702,0.1698,0.1694,0.1685,0.1681,0.1727,0.1727,0.1727,0,0.15,0.1513,0.1546,0.1552,0.1563,0.16,0.16,0.1615,0.1644,0.1651,0.1664,0.1691,0.171,0.1715,0.1708,0.1715,0.1716,0.1725,0.1696,0.1692,0.169,0.1681,0.1677,0.1724,0.1725,0.1725,0.1725,0,0.1473,0.1482,0.1477,0.1506,0.1517,0.1519,0.1552,0.1559,0.158,0.1602,0.1609,0.1633,0.1652,0.1655,0.1675,0.1663,0.167,0.1689,0.1712,0.1681,0.1674,0.1671,0.1721,0.1722,0.1723,0.1723,0,0,0.1403,0.1451,0.1449,0.1464,0.1497,0.1504,0.1508,0.1528,0.1534,0.1553,0.1558,0.1575,0.1593,0.1606,0.1628,0.1627,0.1604,0.1647,0.1648,0.1639,0.1594,0.158,0.1576,0.1619,0.1619,0.1618,0.1593,0,0.1371,0.1382,0.1412,0.1414,0.1423,0.146,0.1464,0.1485,0.1505,0.1516,0.1539,0.1551,0.1573,0.1581,0.1583,0.1606,0.1596,0.1609,0.1625,0.1625,0.1618,0.1572,0.1557,0.1532,0.159,0.1589,0.1589,0,0.1335,0.1354,0.1356,0.139,0.1395,0.1398,0.142,0.143,0.1455,0.147,0.1485,0.151,0.1517,0.1539,0.155,0.1558,0.1566,0.1579,0.1579,0.1582,0.1605,0.1574,0.1524,0.152,0.1585,0.1585,0.1585,0,0.1286,0.1311,0.1316,0.1327,0.1367,0.1368,0.1385,0.1411,0.1421,0.144,0.1448,0.1466,0.1477,0.1491,0.1521,0.1534,0.1529,0.1553,0.1542,0.1542,0.154,0.1539,0.1491,0.1544,0.1544,0.1544,0.1544,0,0.1247,0.1248,0.1295,0.1298,0.13,0.1335,0.1336,0.1356,0.1379,0.1387,0.142,0.1427,0.1466,0.1477,0.15,0.1507,0.1511,0.1524,0.153,0.1521,0.152,0.1527,0.153,0.1543,0.1543,0.1543,0.1544,0,0.1192,0.1224,0.1232,0.127,0.1279,0.1279,0.1311,0.1316,0.134,0.1349,0.1354,0.139,0.1406,0.1437,0.146,0.1477,0.1478,0.1488,0.1469,0.1473,0.1462,0.1463,0.1417,0.1413,0.1467,0.1467,0.1466,0,0.1166,0.1167,0.1206,0.1214,0.1229,0.1242,0.1253,0.1288,0.1299,0.1329,0.133,0.1348,0.1365,0.1388,0.1416,0.1435,0.1447,0.1429,0.145,0.1441,0.1448,0.1447,0.1448,0.1425,0.1424,0.1423,0.1423,0,0.1116,0.1132,0.1147,0.1169,0.1182,0.12,0.122,0.1224,0.1264,0.1275,0.1291,0.1304,0.133,0.1347,0.1371,0.1388,0.1412,0.1416,0.1415,0.1406,0.1396,0.1402,0.1458,0.1417,0.1418,0.1418,0.1418,0.1419,0.1075,0.1079,0.1107,0.1123,0.1142,0.1161,0.1168,0.1192,0.1207,0.1231,0.1251,0.1266,0.1292,0.1326,0.1342,0.1355,0.1367,0.1365,0.1364,0.1363,0.136,0.1393,0.1359,0.136,0.136,0.136,0.136,0,0.1028,0.1049,0.1063,0.1091,0.1104,0.1127,0.115,0.116,0.1173,0.1196,0.1212,0.1232,0.125,0.128,0.1301,0.1305,0.1317,0.131,0.131,0.1314,0.1348,0.1347,0.13,0.13,0.13,0.13,0.13,0.13,0.1005,0.1013,0.1032,0.105,0.1071,0.1087,0.1098,0.1116,0.1134,0.1155,0.1171,0.1191,0.1217,0.124,0.1258,0.1267,0.1273,0.1262,0.1274,0.1306,0.1311,0.1317,0.1316,0.1263,0.1263,0.124,0.1239,0.1239]}]]